www.pogodaiklimat.ru

Погода и климат >> Архив погоды >> Россия >> Магаданская область >> Омсукчан


ПОГОДА в Омсукчане

  • Прогноз погоды в Омсукчане
  • Монитор погоды в Омсукчане

АРХИВ ПОГОДЫ в Омсукчане

Время (UTC), дата Ветер
(напр.,м/с)
 
Видим.   Явления Облачность Т
(С)
Тd
(С)
f
(%)
Тe
(С)
Тes
(С)
Комфортность P
(гПа)
Po
(гПа)
Тmin
(С)
Tmax
(С)
R
(мм)
R24
(мм)
S
(см)
18 16.07 ЮЗ 1 50 км 9/4 1000 м
[Cb cap Ac trans]
+8.8 +8.8 100 +8 +8 1009.3 950.5
21 16.07 штиль 0 50 км в посл. час ливневой дождь 9/8 300 м
[Cb cap Ac trans]
+10.5 +9.8 95 +10 +11 1007.9 949.6 +8.7 0.5
00 17.07 СВ 1 20 км слаб. ливневой дождь 10/10 800 м
[Cb cap]
+11.2 +10.5 95 +11 +11 1006.7 948.6
03 17.07 В 1 20 км слаб. ливневой дождь 10/10 800 м
[Cb cap]
+11.2 +10.5 95 +11 +11 1006.7 947.4
06 17.07 СВ 1 50 км в посл. час ливневой дождь 9/9 870 м
[Cb cap]
+12.8 +12.1 96 +13 +13 1004.0 946.4
09 17.07 штиль 0 10 км слаб. ливневой дождь 10/10 200 м
[Cb cap]
+11.7 +11.3 97 +11 +11 1004.2 946.3 +12.9 13
12 17.07 ЮЗ 1 50 км в посл. час ливневой дождь 10/8 300 м
[Cb cap Ac und]
+10.5 +10.5 100 +10 +10 1004.7 946.6
15 17.07 ЮЗ 1 50 км {ливн. осадки} 10/8 300 м
[Cb cap Ac und]
+9.7 +9.7 100 +9 +9 1005.3 946.9
18 17.07 З 2 50 км {ливн. осадки} 10/6 200 м
[Cb cap Ac und]
+9.3 +9.3 100 +7 +7 1005.5 947.0
21 17.07 Ю 2 50 км 8/6 300 м
[Cb cap Ac trans]
+12.0 +10.8 92 +11 +12 1005.0 947.1 +9.2 3
00 18.07 З 1 50 км 9/9 1050 м
[Cb cap]
+15.3 +10.2 72 +16 +17 1004.0 946.8
03 18.07 Ю 2 50 км 9/6 1000 м
[Cb cap Ac trans Ci fib]
+19.2 +10.1 56 +21 +24 комфорт 1002.5 946.1
06 18.07 Ю 3 50 км 8/4 1000 м
[Cb cap Ac trans Ci fib]
+20.4 +9.8 51 +22 +24 комфорт 1001.0 944.9
09 18.07 З 3 50 км 9/5 1000 м
[Cb cap Ac trans Ci fib]
+17.2 +10.6 65 +17 +17 1002.1 945.4 +20.8
12 18.07 З 4 50 км 10/6 1000 м
[Cb cap Ac und]
+13.9 +10.0 77 +12 +12 1004.7 947.2
15 18.07 З 4 50 км 10/8 1000 м
[Cb cap Ac und]
+12.6 +9.9 84 +11 +11 1005.7 947.9
18 18.07 З 4 50 км 10/8 1000 м
[Cb cap Ac und]
+12.4 +9.9 85 +10 +10 1006.5 948.6
21 18.07 З 4 50 км 9/9 720 м
[Cb cap]
+13.6 +10.4 81 +12 +12 1007.1 949.4 +12.3
00 19.07 З 3 50 км 10/10 800 м
[Cb cap]
+15.5 +11.0 75 +15 +15 1007.1 949.8
03 19.07 З 3 50 км 8/6 870 м
[Sc Ac trans]
+19.0 +11.8 63 +20 +23 1006.4 949.8
06 19.07 З 2 50 км 8/8 1000 м
[Cu Sc]
+20.8 +11.8 56 +24 +25 комфорт 1005.7 949.5
09 19.07 З 4 50 км слаб. ливневой дождь 9/5 900 м
[Cb cap Ac trans]
+15.7 +12.9 83 +15 +15 1007.7 950.4 +22.1 0.0
12 19.07 З 3 50 км слаб. ливневой дождь 10/8 870 м
[Cb cap Ac und]
+13.0 +12.2 95 +12 +12 1009.0 951.1
15 19.07 З 2 50 км {ливн. осадки} 10/10 840 м
[Cb cap]
+12.0 +11.5 97 +11 +11 1008.7 950.6
18 19.07 ЮЗ 1 50 км слаб. ливневой дождь 10/10 800 м
[Cb cap]
+11.1 +10.7 97 +11 +11 1008.6 950.4
21 19.07 СВ 3 50 км в посл. час ливневой дождь 10/10 800 м
[Cb cap]
+8.4 +8.2 99 +6 +6 1009.8 950.9 +8.4 7
00 20.07 СВ 3 50 км в посл. час ливневой дождь 10/10 800 м
[Cb cap]
+8.5 +8.0 97 +6 +6 1010.8 951.8 +8.1
03 20.07 В 2 50 км слаб. ливневой дождь 10/10 800 м
[Cb cap]
+7.7 +7.2 97 +5 +5 1012.1 952.9
06 20.07 СВ 2 50 км слаб. ливневой дождь 10/10 600 м
[Cb cap]
+6.7 +6.4 98 +4 +4 1012.1 952.7
09 20.07 СВ 2 50 км {ливн. осадки} 10/8 600 м
[Cb cap Ac und]
+6.5 +5.5 93 +4 +4 1012.5 953.0 +8.6 15
12 20.07 В 1 20 км слаб. ливневой дождь 10/10 600 м
[Cb cap]
+5.4 +4.8 96 +4 +4 1013.0 953.2
15 20.07 штиль 0 50 км {ливн. осадки} 10/10 800 м
[Cb cap]
+5.1 +4.8 98 +4 +4 1013.1 953.2
18 20.07 штиль 0 50 км {ливн. осадки} 10/10 800 м
[Cb cap]
+5.3 +5.3 100 +4 +4 1012.1 952.4
21 20.07 штиль 0 50 км 10/9 840 м
[Cb cap Ac und]
+7.1 +5.5 90 +6 +6 1011.4 952.1 +4.9 0.4
00 21.07 С 4 50 км {ливн. осадки} 9/6 600 м
[Cb cap Ac trans]
+8.8 +3.5 69 +6 +8 1010.4 951.5
03 21.07 В 1 50 км 9/6 1000 м
[Cb cap Ac trans]
+10.2 +4.9 70 +10 +13 1009.2 950.6
06 21.07 В 1 50 км {ливн. осадки} 9/8 930 м
[Cb cap Ac trans]
+10.6 +5.2 69 +10 +11 1008.3 949.9
09 21.07 З 2 50 км 8/4 1000 м
[Cb cap Ci fib]
+10.5 +2.5 58 +9 +10 1008.5 950.0 +11.5 0.6
12 21.07 ЮЗ 1 50 км 10/6 600 м
[Cb cap Ac und]
+7.0 +4.5 84 +6 +6 1009.3 950.0
15 21.07 ЮЗ 2 50 км ясно +3.4 +2.3 92 0 0 1009.5 949.5
18 21.07 З 3 50 км 9/0
[Ac trans Ci fib]
+3.8 +2.2 89 -0 0 1008.5 948.6
21 21.07 ЮЗ 2 50 км 8/3 1000 м
[Sc Ac trans]
+8.3 +5.0 80 +6 +8 1006.4 947.6 +2.6
00 22.07 ЮЗ 1 50 км 9/6 1320 м
[Sc Ac trans]
+13.4 +4.1 53 +14 +17 1004.6 946.9
03 22.07 В 1 50 км слаб. ливневой дождь 10/8 600 м
[Cb cap Ac und]
+5.3 +4.6 95 +4 +5 1009.0 949.5
06 22.07 В 1 50 км в посл. час ливневой дождь 10/6 1000 м
[Cb cap Ac und]
+5.0 +4.0 93 +4 +4 1010.9 951.2
09 22.07 СВ 1 50 км 10/8 960 м
[Cb cap Ac und]
+5.6 +3.6 87 +4 +4 1011.7 952.0 +13.8 6
12 22.07 В 1 50 км 8/8 960 м
[Cb cap]
+3.3 +2.7 96 +2 +2 1013.1 952.8
15 22.07 С 2 50 км 8/8 1000 м
[Cb cap]
+3.7 -0.7 73 +1 +1 1013.4 953.2
18 22.07 В 1 50 км в посл. час ливневой дождь 9/9 870 м
[Cb cap]
+2.2 +1.2 93 0 0 1014.1 953.5
21 22.07 СВ 1 20 км слаб. ливневой снег 10/9 840 м
[Cb cap Ac und]
+2.0 +0.5 90 0 0 1014.9 954.3 +1.6 0.1
00 23.07 СВ 2 50 км {ливн. осадки} 10/8 870 м
[Cb cap Ac und]
+4.3 +0.7 77 +2 +2 1014.4 954.2
03 23.07 С 3 50 км {ливн. осадки} 10/8 800 м
[Cb cap Ac und]
+6.5 -0.2 62 +4 +4 1013.2 953.6
06 23.07 С 3 50 км {ливн. осадки} 10/8 800 м
[Cb cap Ac und]
+6.5 -0.2 62 +4 +4 1013.2 953.6
09 23.07 С 2
{11}
50 км слаб. ливневой дождь 10/10 800 м
[Cb cap]
+5.2 +1.3 76 +3 +3 1014.4 954.5 +8.7 0.7
12 23.07 СВ 1
{10}
50 км осадки на расстоянии {ливн. осадки} 10/10 720 м
[Cb cap]
+5.1 +0.4 72 +4 +4 1014.7 954.7
15 23.07 С 3 50 км 8/8 600 м
[Cb cap]
+4.5 -0.7 69 +1 +1 1014.6 954.5

 

Местоположение метеостанции Омсукчан (Магаданская область, Россия): широта 62.52 долгота 155.80 высота над уровнем моря 500 м.

В архиве по умолчанию представлена погода в Омсукчане за последнюю неделю. Архивные данные за месяц целиком и за предыдущие месяцы, начиная с января 2011 года, Вы можете получить, выбрав интересующий диапазон дат из раскрывающегося списка и нажав кнопку "Ввод!".


*Определитесь, кто Вы:
робот инопланетянин человек

Внимание! Время в таблицах - всемирное. Для получения местного времени необходимо прибавить поправку, которая равна 11 ч.

Смотрите также архив погоды в соседних городах и на ближайших метеорологических станциях:

Погода в Лабазной (Магаданская область, Россия) (162 км)
Погода в Балыгычане (Магаданская область, Россия) (177 км)
Погода в Сеймчане (Магаданская область, Россия) (179 км)
Погода в Среднекане (Магаданская область, Россия) (180 км)
Погода в Эвенске (Магаданская область, Россия) (188 км)
Погода на Шелихова (Магаданская область, Россия) (200 км)
Погода в Талой (Магаданская область, Россия) (240 км)
Погода в Коркодоне (Магаданская область, Россия) (265 км)
Погода в Совхозе Эльген (Магаданская область, Россия) (267 км)
Погода в Усть-Бохапче (Магаданская область, Россия) (273 км)

Пояснения к столбцам:

Ветер - указаны скорость ветра в м/с - средняя за 10 мин, порывы в срок и между сроками (в фигурных скобках) и направление, откуда дует ветер: С - северный, СВ - северо-восточный, В - восточный, ЮВ - юго-восточный, Ю - южный, ЮЗ - юго-западный, З - западный, СЗ - северо-западный.
Видимость - горизонтальная дальность видимости в метрах или километрах. При видимости от 1 до 10 км при отсутствии осадков обычно наблюдается дымка, при ухудшении видимости до 1 км и менее - туман. В сухую погоду видимость может ухудшаться дымом, пылью или мглою.
Явления - указаны атмосферные явления, наблюдавшиеся в срок или в последний час перед сроком; фигурными скобками обозначены явления, наблюдавшиеся между сроками (за 1-3 часа до срока); квадратными скобками обозначены град или гололедные отложения с указанием их диаметра в мм.
Облачность - указаны через наклонную черту общая и нижняя облачность в баллах и высота нижней границы облаков в метрах; квадратными скобками обозначены формы облаков: Ci - перистые, Cs - перисто-слоистые, Cc - перисто-кучевые, Ac - высококучевые, As - высокослоистые, Sc - слоисто-кучевые, Ns - слоисто-дождевые, Cu - кучевые, Cb - кучево-дождевые. Подробнее классификацию облаков см. в Атласе облаков (PDF).
T - Температура воздуха - температура, измеренная на высоте 2 м над землей.
Td - Температура точки росы - температура, при понижении до которой содержащийся в воздухе водяной пар достигнет насыщения.
f - Относительная влажность воздуха - влажноcть воздуха, измеренная на высоте 2 м над землей.
Te - Эффективная температура - температура, которую ощущает одетый по сезону человек в тени. Характеристика душности погоды. При расчете учитывается влияние влажности воздуха и скорости ветра на теплоощущения человека.
Tes - Эффективная температура на солнце - температура, которую ощущает человек, с поправкой на солнечный нагрев. Характеристика знойности погоды. Зависит от высоты солнца над горизонтом, облачности и скорости ветра. Ночью, в пасмурную погоду, а также при ветре 12 м/с и более поправка равна нулю.
P - Атмосферное давление - приведенное к уровню моря атмосферное давление.
Po - Атмосферное давление - измеренное на уровне метеостанции атмосферное давление.
Tmin - Минимальная температура - минимум температуры воздуха на высоте 2 м над землей.
Tmax - Максимальная температура - максимум температуры воздуха на высоте 2 м над землей.
R - Количество осадков - Количество выпавших осадков за период времени, мм. При наведении курсора мыши на число - период времени, за который выпало указанное количество осадков.
R24 - Количество осадков - Количество выпавших осадков за 24 часа, мм.
S - Снежный покров - Высота снежного покрова, см. При наведении курсора мыши на число - состояние снежного покрова и степень покрытия местности в баллах.